YAMAL 300K

Last updated on Thu Oct 16 2025 00:02:47 GMT+0000 (Coordinated Universal Time)

1 38978U 12061B 25288.30770297 .00000057 00000+0 00000+0 0 9995 2 38978 0.0168 176.0832 0000754 63.6694 78.0676 1.00270788 47175
UTC large
Height (km)
Speed (km/s)
/
Latitude / Longitude
Inclination (degrees)
Orbital Period (minutes)
Azimuth
Elevation
Range (km)
Doppler Factor

Next 0 passes for location: London (51.5072 / 0.1276)

Sorry there are no passes over London.